Weather History for San Antonio, TX

Change the Weather History Date:

Thursday, August 8, 2013

  Actual Average Record
Temperature  
Mean Temperature 92 °F 86 °F  
Max Temperature 104 °F 97 °F 104 °F (1953)
Min Temperature 79 °F 75 °F 69 °F (1947)
Degree Days  
Heating Degree Days 0 0  
Month to date heating degree days 0 0  
Since 1 June heating degree days 0 0  
Since 1 July heating degree days 0 0  
Cooling Degree Days 27 21  
Month to date cooling degree days 210 168  
Year to date cooling degree days 2064 1928  
Since 1 June cooling degree days 1447 1299  
Growing Degree Days 42 (Base 50)    
Moisture  
Dew Point 69 °F    
Average Humidity 50    
Maximum Humidity 79    
Minimum Humidity 21    
Precipitation  
Precipitation 0.00 in 0.04 in 3.66 in (1974)
Month to date precipitation 0.00 0.38  
Year to date precipitation 22.59 19.23  
Snow  
Snow 0.00 in - - ()
Month to date snowfall 0.0  
Since 1 June snowfall 0.0  
Since 1 July snowfall 0.0  
Snow Depth 0.00 in    
Sea Level Pressure  
Sea Level Pressure 29.83 in    
Wind  
Wind Speed 11 mph (SSE)    
Max Wind Speed 23 mph    
Max Gust Speed 29 mph    
Visibility 9 miles    
Events      
T = Trace of Precipitation, MM = Missing Value Source: NWS Daily Summary

Daily Weather History Graph

Daily Weather History Graph

Search for Another Location

Airport:

Trip Planner

Search our weather history database for the weather conditions in past years. The results will help you decide how hot, cold, wet, or windy it might be!

Date:

Astronomy

Aug. 08, 2013 Rise Set
Actual Time 6:58 AM CDT 8:20 PM CDT
Civil Twilight 6:32 AM CDT 8:45 PM CDT
Nautical Twilight 6:02 AM CDT 9:16 PM CDT
Astronomical Twilight 5:30 AM CDT 9:47 PM CDT
Moon 8:33 AM CDT (8/8) 9:15 PM CDT (8/8)
Length of Visible Light 14h 13m
Length of Day
13h 22m
Waxing Crescent, 3% of the Moon is Illuminated
Aug 8
Waxing Crescent
Aug 14
First Quarter
Aug 20
Full
Aug 28
Last Quarter
Sep 5
New

Hourly Weather History & Observations

Time (CDT) Temp. Heat Index Dew Point Humidity Pressure Visibility Wind Dir Wind Speed Gust Speed Precip Events Conditions
12:51 AM 82.0 °F 86.3 °F 71.1 °F 69% 29.86 in 9.0 mi SE 11.5 mph - N/A   Clear
1:51 AM 81.0 °F 85.8 °F 73.0 °F 77% 29.86 in 9.0 mi SSE 11.5 mph - N/A   Partly Cloudy
2:51 AM 80.1 °F 84.2 °F 73.0 °F 79% 29.86 in 9.0 mi SSE 12.7 mph - N/A   Scattered Clouds
3:22 AM 80.6 °F 85.4 °F 73.4 °F 79% 29.91 in 9.0 mi SSE 12.7 mph 17.3 mph N/A   Mostly Cloudy
3:51 AM 80.1 °F 84.2 °F 73.0 °F 79% 29.84 in 9.0 mi South 11.5 mph - N/A   Mostly Cloudy
4:51 AM 80.1 °F 84.2 °F 73.0 °F 79% 29.84 in 9.0 mi South 9.2 mph - N/A   Mostly Cloudy
5:51 AM 80.1 °F 83.6 °F 71.1 °F 74% 29.84 in 9.0 mi South 11.5 mph - N/A   Mostly Cloudy
6:51 AM 80.1 °F 83.6 °F 71.1 °F 74% 29.85 in 9.0 mi SSW 5.8 mph - N/A   Mostly Cloudy
7:41 AM 80.6 °F 84.6 °F 71.6 °F 74% 29.92 in 8.0 mi South 6.9 mph - N/A   Scattered Clouds
7:51 AM 81.0 °F 84.9 °F 71.1 °F 72% 29.86 in 8.0 mi South 8.1 mph - N/A   Scattered Clouds
8:51 AM 82.9 °F 87.5 °F 71.1 °F 67% 29.88 in 8.0 mi South 8.1 mph - N/A   Mostly Cloudy
9:51 AM 84.9 °F 90.1 °F 71.1 °F 63% 29.88 in 9.0 mi South 9.2 mph - N/A   Scattered Clouds
10:51 AM 88.0 °F 93.8 °F 71.1 °F 57% 29.88 in 9.0 mi South 10.4 mph 16.1 mph N/A   Scattered Clouds
11:51 AM 91.0 °F 97.6 °F 71.1 °F 52% 29.88 in 9.0 mi SE 9.2 mph - N/A   Partly Cloudy
12:51 PM 93.0 °F 100.1 °F 71.1 °F 49% 29.86 in 9.0 mi SSE 6.9 mph 17.3 mph N/A   Clear
1:51 PM 95.0 °F 102.5 °F 71.1 °F 46% 29.83 in 9.0 mi South 10.4 mph - N/A   Clear
2:51 PM 99.0 °F 105.5 °F 69.1 °F 38% 29.81 in 9.0 mi SSE 12.7 mph 16.1 mph N/A   Clear
3:51 PM 102.0 °F 108.8 °F 69.1 °F 34% 29.79 in 10.0 mi South 9.2 mph 16.1 mph N/A   Clear
4:51 PM 102.9 °F 106.1 °F 64.0 °F 28% 29.76 in 10.0 mi South 11.5 mph 17.3 mph N/A   Clear
5:51 PM 102.9 °F 103.6 °F 60.1 °F 24% 29.75 in 10.0 mi SSE 13.8 mph 19.6 mph N/A   Clear
6:51 PM 102.0 °F 100.6 °F 55.0 °F 21% 29.74 in 10.0 mi South 12.7 mph - N/A   Clear
7:51 PM 99.0 °F 96.5 °F 53.1 °F 21% 29.75 in 10.0 mi SSE 11.5 mph - N/A   Clear
8:51 PM 93.9 °F 98.6 °F 68.0 °F 43% 29.78 in 10.0 mi SE 17.3 mph - N/A   Partly Cloudy
9:51 PM 90.0 °F 96.4 °F 71.1 °F 54% 29.81 in 10.0 mi SE 11.5 mph - N/A   Partly Cloudy
10:51 PM 86.0 °F 93.0 °F 73.0 °F 65% 29.84 in 10.0 mi SE 13.8 mph - N/A   Partly Cloudy
11:51 PM 82.9 °F 89.4 °F 73.9 °F 74% 29.86 in 10.0 mi SE 13.8 mph - N/A   Partly Cloudy